Pinedale, WY

6:17 AM MDT on July 28, 2017 (GMT -0600)
Wenz

Weather History for KPNA - January, 2014

Change the Weather History Date:

Sunday, January 12, 2014

  Actual Average (KBPI) Record (KBPI)
Temperature  
Mean Temperature 18 °F -  
Max Temperature 26 °F 22 °F 41 °F (1999)
Min Temperature 10 °F 0 °F -30 °F (1987)
Degree Days  
Heating Degree Days 47    
Moisture  
Dew Point 15 °F    
Average Humidity 79    
Maximum Humidity 100    
Minimum Humidity 55    
Precipitation  
Precipitation 0.00 in - - ()
Sea Level Pressure  
Sea Level Pressure 29.85 in    
Wind  
Wind Speed 15 mph (WNW)    
Max Wind Speed 24 mph    
Max Gust Speed 34 mph    
Visibility 10 miles    
Events Snow    
Averages and records for this station are not official NWS values.
T = Trace of Precipitation, MM = Missing Value Source: NWS Daily Summary

Daily Weather History Graph

Daily Weather History Graph

Search for Another Location

Airport or City:

Trip Planner

Search our weather history database for the weather conditions in past years. The results will help you decide how hot, cold, wet, or windy it might be!

Date:

Astronomy

Jan. 12, 2014 Rise Set
Actual Time 7:48 AM MST 5:07 PM MST
Civil Twilight 7:16 AM MST 5:38 PM MST
Nautical Twilight 6:41 AM MST 6:13 PM MST
Astronomical Twilight 6:07 AM MST 6:47 PM MST
Moon 2:38 PM MST (1/12) 4:49 AM MST (1/12)
Length of Visible Light 10h 21m
Length of Day
9h 18m
Waxing Gibbous, 90% of the Moon is Illuminated
Jan 12
Waxing Gibbous
Jan 15
Full
Jan 23
Last Quarter
Jan 30
New
Feb 6
First Quarter

Hourly Weather History & Observations

Time (MST) Temp. Windchill Dew Point Humidity Pressure Visibility Wind Dir Wind Speed Gust Speed Precip Events Conditions
12:15 AM 26.6 °F 14.3 °F 23.0 °F 86% 29.67 in 10.0 mi WNW 16.1 mph - N/A   Scattered Clouds
12:35 AM 26.6 °F 11.7 °F 21.2 °F 80% 29.66 in 10.0 mi West 24.2 mph 34.5 mph N/A   Overcast
12:55 AM 26.6 °F 12.0 °F 24.8 °F 93% 29.69 in 1.5 mi West 23.0 mph 29.9 mph N/A Snow Light Snow
1:15 AM 26.6 °F 12.4 °F 24.8 °F 93% 29.67 in 1.5 mi WNW 21.9 mph 27.6 mph N/A Snow Light Snow
1:35 AM 24.8 °F 10.7 °F 23.0 °F 93% 29.65 in 5.0 mi West 19.6 mph 26.5 mph N/A Snow Light Snow
1:55 AM 24.8 °F 10.0 °F 21.2 °F 86% 29.65 in 10.0 mi West 21.9 mph 26.5 mph N/A   Scattered Clouds
2:15 AM 26.6 °F 13.4 °F 19.4 °F 74% 29.66 in 10.0 mi West 18.4 mph 25.3 mph N/A   Clear
2:35 AM 24.8 °F 10.3 °F 19.4 °F 80% 29.66 in 10.0 mi West 20.7 mph 26.5 mph N/A   Clear
2:55 AM 24.8 °F 10.7 °F 17.6 °F 74% 29.64 in 10.0 mi WNW 19.6 mph - N/A   Clear
3:15 AM 23.0 °F 9.2 °F 17.6 °F 80% 29.64 in 10.0 mi WNW 17.3 mph - N/A   Clear
3:35 AM 23.0 °F 10.1 °F 17.6 °F 80% 29.66 in 10.0 mi West 15.0 mph 23.0 mph N/A   Clear
3:55 AM 23.0 °F 10.6 °F 15.8 °F 74% 29.67 in 10.0 mi West 13.8 mph - N/A   Clear
4:15 AM 21.2 °F 10.9 °F 15.8 °F 80% 29.69 in 10.0 mi WSW 9.2 mph - N/A   Scattered Clouds
4:35 AM 21.2 °F 9.5 °F 15.8 °F 80% 29.69 in 10.0 mi West 11.5 mph 23.0 mph N/A   Scattered Clouds
4:55 AM 17.6 °F 5.7 °F 15.8 °F 93% 29.69 in 10.0 mi WNW 10.4 mph - N/A   Scattered Clouds
5:15 AM 15.8 °F 6.1 °F 14.0 °F 93% 29.69 in 10.0 mi NNW 6.9 mph - N/A   Clear
5:35 AM 15.8 °F 6.1 °F 14.0 °F 93% 29.69 in 10.0 mi WNW 6.9 mph - N/A   Clear
5:55 AM 10.4 °F -2.4 °F 10.4 °F 100% 29.71 in 10.0 mi WNW 9.2 mph - N/A   Clear
6:15 AM 15.8 °F 1.4 °F 14.0 °F 93% 29.71 in 10.0 mi West 13.8 mph - N/A   Clear
6:35 AM 19.4 °F 5.0 °F 14.0 °F 80% 29.71 in 10.0 mi West 16.1 mph 27.6 mph N/A   Clear
6:55 AM 19.4 °F 6.6 °F 14.0 °F 80% 29.71 in 10.0 mi WSW 12.7 mph 20.7 mph N/A   Clear
7:15 AM 19.4 °F 8.6 °F 12.2 °F 74% 29.72 in 10.0 mi WSW 9.2 mph - N/A   Scattered Clouds
7:35 AM 15.8 °F 7.2 °F 10.4 °F 79% 29.74 in 10.0 mi NW 5.8 mph - N/A   Scattered Clouds
7:55 AM 17.6 °F 8.2 °F 12.2 °F 79% 29.75 in 10.0 mi West 6.9 mph - N/A   Mostly Cloudy
8:15 AM 19.4 °F 8.6 °F 12.2 °F 74% 29.75 in 10.0 mi WSW 9.2 mph - N/A   Overcast
8:35 AM 19.4 °F 8.6 °F 14.0 °F 80% 29.76 in 10.0 mi WSW 9.2 mph - N/A   Overcast
8:55 AM 21.2 °F 10.9 °F 15.8 °F 80% 29.77 in 10.0 mi West 9.2 mph - N/A   Overcast
9:15 AM 21.2 °F 11.7 °F 14.0 °F 74% 29.79 in 10.0 mi West 8.1 mph - N/A   Mostly Cloudy
9:35 AM 21.2 °F 8.9 °F 14.0 °F 74% 29.79 in 10.0 mi West 12.7 mph - N/A   Scattered Clouds
9:55 AM 23.0 °F 11.1 °F 15.8 °F 74% 29.81 in 10.0 mi West 12.7 mph - N/A   Scattered Clouds
10:15 AM 23.0 °F 9.2 °F 14.0 °F 68% 29.82 in 10.0 mi WNW 17.3 mph 20.7 mph N/A   Scattered Clouds
10:35 AM 23.0 °F 8.7 °F 14.0 °F 68% 29.83 in 10.0 mi West 18.4 mph - N/A   Scattered Clouds
10:55 AM 24.8 °F 11.9 °F 15.8 °F 69% 29.84 in 10.0 mi West 16.1 mph - N/A   Clear
11:15 AM 24.8 °F 11.1 °F 14.0 °F 64% 29.85 in 10.0 mi West 18.4 mph 24.2 mph N/A   Clear
11:35 AM 26.6 °F 12.4 °F 14.0 °F 59% 29.85 in 10.0 mi West 21.9 mph 27.6 mph N/A   Scattered Clouds
11:55 AM 24.8 °F 9.6 °F 14.0 °F 64% 29.85 in 10.0 mi West 23.0 mph - N/A   Scattered Clouds
12:15 PM 24.8 °F 10.0 °F 12.2 °F 59% 29.84 in 10.0 mi West 21.9 mph 28.8 mph N/A   Clear
12:35 PM 24.8 °F 11.5 °F 14.0 °F 64% 29.85 in 10.0 mi West 17.3 mph 26.5 mph N/A   Clear
12:55 PM 26.6 °F 13.8 °F 14.0 °F 59% 29.85 in 10.0 mi West 17.3 mph 26.5 mph N/A   Clear
1:15 PM 24.8 °F 10.0 °F 14.0 °F 64% 29.86 in 10.0 mi West 21.9 mph - N/A   Scattered Clouds
1:35 PM 26.6 °F 13.4 °F 12.2 °F 55% 29.87 in 10.0 mi WNW 18.4 mph 26.5 mph N/A   Overcast
1:55 PM 26.6 °F 12.0 °F 14.0 °F 59% 29.88 in 10.0 mi West 23.0 mph 28.8 mph N/A   Overcast
2:15 PM 26.6 °F 12.7 °F 12.2 °F 55% 29.88 in 10.0 mi West 20.7 mph 31.1 mph N/A   Overcast
2:35 PM 26.6 °F 12.0 °F 14.0 °F 59% 29.90 in 10.0 mi West 23.0 mph 33.4 mph N/A   Overcast
2:55 PM 24.8 °F 9.6 °F 14.0 °F 64% 29.92 in 5.0 mi West 23.0 mph 31.1 mph N/A   Haze
3:15 PM 24.8 °F 9.6 °F 14.0 °F 64% 29.92 in 7.0 mi West 23.0 mph 28.8 mph N/A Snow Light Snow
3:35 PM 23.0 °F 8.3 °F 14.0 °F 68% 29.93 in 10.0 mi West 19.6 mph 28.8 mph N/A   Overcast
3:55 PM 23.0 °F 11.1 °F 14.0 °F 68% 29.95 in 10.0 mi West 12.7 mph 20.7 mph N/A   Mostly Cloudy
4:15 PM 21.2 °F 10.1 °F 14.0 °F 74% 29.95 in 10.0 mi WNW 10.4 mph - N/A   Scattered Clouds
4:35 PM 19.4 °F 5.5 °F 14.0 °F 80% 29.96 in 10.0 mi WNW 15.0 mph - N/A   Clear
4:55 PM 19.4 °F 5.0 °F 14.0 °F 80% 29.97 in 10.0 mi WNW 16.1 mph - N/A   Clear
5:15 PM 19.4 °F 6.0 °F 14.0 °F 80% 29.97 in 10.0 mi WNW 13.8 mph - N/A   Clear
5:35 PM 19.4 °F 9.5 °F 12.2 °F 74% 29.98 in 10.0 mi NW 8.1 mph - N/A   Clear
5:55 PM 15.8 °F 5.1 °F 12.2 °F 86% 29.99 in 10.0 mi NW 8.1 mph - N/A   Clear
6:15 PM 15.8 °F 2.7 °F 14.0 °F 93% 30.00 in 10.0 mi NNW 11.5 mph - N/A   Scattered Clouds
6:35 PM 15.8 °F 5.1 °F 12.2 °F 86% 30.01 in 10.0 mi North 8.1 mph - N/A   Scattered Clouds
6:55 PM 12.2 °F 1.7 °F 8.6 °F 85% 30.02 in 10.0 mi NW 6.9 mph - N/A   Mostly Cloudy
7:15 PM 12.2 °F -1.0 °F 10.4 °F 92% 30.03 in 10.0 mi WNW 10.4 mph - N/A   Mostly Cloudy
7:35 PM 14.0 °F -0.2 °F 14.0 °F 100% 30.03 in 10.0 mi WNW 12.7 mph - N/A   Mostly Cloudy
7:55 PM 15.8 °F 3.4 °F 14.0 °F 93% 30.03 in 10.0 mi WNW 10.4 mph - N/A   Overcast
8:15 PM 17.6 °F 5.7 °F 14.0 °F 86% 30.03 in 10.0 mi NW 10.4 mph - N/A   Overcast
8:35 PM 17.6 °F 7.3 °F 14.0 °F 86% 30.04 in 10.0 mi NNW 8.1 mph - N/A   Overcast
8:55 PM 15.8 °F 5.1 °F 14.0 °F 93% 30.05 in 10.0 mi WNW 8.1 mph - N/A   Overcast
9:15 PM 14.0 °F 2.0 °F 12.2 °F 93% 30.06 in 10.0 mi WNW 9.2 mph - N/A   Overcast
9:35 PM 15.8 °F 4.2 °F 14.0 °F 93% 30.07 in 10.0 mi WNW 9.2 mph - N/A   Overcast
9:55 PM 19.4 °F 9.5 °F 15.8 °F 86% 30.07 in 10.0 mi WNW 8.1 mph - N/A   Overcast
10:15 PM 19.4 °F 10.4 °F 15.8 °F 86% 30.08 in 10.0 mi NW 6.9 mph - N/A   Overcast
10:35 PM 19.4 °F 8.6 °F 17.6 °F 93% 30.08 in 10.0 mi NNW 9.2 mph - N/A   Overcast
10:55 PM 19.4 °F 10.4 °F 17.6 °F 93% 30.08 in 10.0 mi NNW 6.9 mph - N/A   Overcast
11:15 PM 17.6 °F 7.3 °F 15.8 °F 93% 30.08 in 7.0 mi NNW 8.1 mph - N/A Snow Light Snow
11:35 PM 17.6 °F 9.3 °F 17.6 °F 100% 30.08 in 10.0 mi NW 5.8 mph - N/A   Overcast
11:55 PM 19.4 °F 9.5 °F 17.6 °F 93% 30.06 in 10.0 mi WNW 8.1 mph - N/A   Overcast